#timestamp,LO_Frequency,Hit,StdDev 
1542679215.2,286047001.0,N
1542679235.0,286047001.2,N
1542679235.9,286047001.2,N
1542679255.7,286047000.9,N
1542679275.6,286047000.7,N
1542679295.4,286047000.7,N
1542679315.3,286047002.8,N
1542679335.1,286047000.1,N
1542679355.8,286047000.8,N
1542679375.7,286047000.0,N
1542679395.5,286047000.0,N
1542679415.4,286047002.4,N
1542679435.2,286047000.3,N
1542679455.0,286047000.6,N
1542679455.9,286047000.6,N
1542679475.8,286046998.3,N
1542679495.6,286047000.0,N
1542679515.4,286047000.5,N
1542679535.3,286047002.8,N
1542679555.1,286047002.8,N
1542679575.9,286047003.1,N
1542679595.7,286047002.2,N
1542679615.5,286046999.9,N
1542679635.4,286047002.4,N
1542679655.2,286047002.8,N
1542679675.0,286047000.1,N
1542679675.9,286047000.1,N
1542679695.8,286047000.2,N
1542679715.6,286047002.4,N
1542679735.5,286047002.7,N
1542679755.3,286047001.8,N
1542679775.1,286047002.3,N
1542679795.9,286047001.4,N
1542679815.7,286047002.5,N
1542679835.6,286047004.4,Y
1542679855.4,286047001.7,P
1542679875.2,286047002.3,P
1542679895.1,286047002.3,P
1542679896.0,286047002.3,Y
1542679915.8,286047000.9,P
1542679935.6,286047000.6,N
1542679955.5,286047000.3,N
1542679975.3,286047002.6,Y
1542679995.2,286047000.8,P
1542680015.0,286046998.1,P
1542680015.9,286046998.1,N
1542680035.7,286047002.3,N
1542680055.6,286047001.0,N
1542680075.4,286046999.8,N
1542680095.3,286047000.4,N
1542680115.1,286047000.5,N
1542680116.0,286047000.5,N
1542680135.8,286047002.1,N
1542680155.7,286047002.2,N
1542680175.5,286047001.8,N
1542680195.3,286047002.2,N
1542680215.2,286047004.1,Y
1542680235.0,286047001.8,P
1542680235.9,286047001.8,P
1542680255.8,286047003.5,P
1542680275.6,286047003.8,Y
1542680295.4,286047002.8,P
1542680315.3,286047001.6,P
1542680335.1,286047003.4,P
1542680355.9,286047005.6,Y
1542680375.7,286047000.2,P
1542680395.5,286047000.3,N
1542680415.4,286047002.0,N
1542680435.2,286047002.2,N
1542680455.1,286047002.8,N
1542680456.0,286047002.8,N
1542680475.8,286047001.4,N
1542680495.6,286047003.6,Y
1542680515.5,286047002.2,P
1542680535.3,286047002.3,P
1542680555.1,286047001.7,P
1542680575.9,286047001.6,Y
1542680595.7,286046998.1,P
1542680615.6,286047001.1,N
1542680635.4,286047000.6,N
1542680655.2,286047000.0,N
1542680675.1,286047002.8,N
1542680676.0,286047002.8,N
1542680695.8,286047000.6,N
1542680715.7,286047000.6,N
1542680735.5,286047000.6,N
1542680755.3,286047000.0,N
1542680775.2,286047001.2,N
1542680795.0,286047002.0,N
1542680795.9,286047002.0,N
1542680815.7,286047001.9,N
1542680835.6,286047002.0,N
1542680855.4,286047002.5,N
1542680875.3,286047001.4,N
1542680895.1,286047004.0,Y
1542680915.8,286047001.5,P
1542680935.7,286047004.2,P
1542680955.5,286047001.3,N
1542680975.4,286047004.1,Y
1542680995.2,286047004.3,P
1542681015.0,286047001.9,N
1542681015.9,286047001.9,N
1542681035.8,286047002.2,N
1542681055.6,286047002.6,N
1542681075.4,286047000.1,N
1542681095.3,286047000.6,N
1542681115.1,286047002.3,N
1542681135.9,286047002.8,N
1542681155.7,286047002.5,N
1542681175.5,286047004.0,Y
1542681195.4,286046999.7,P
1542681215.2,286047001.3,N
1542681235.0,286047002.0,N
1542681236.0,286047002.0,N
1542681255.8,286047003.5,Y
1542681275.6,286047002.5,P
1542681295.5,286047002.1,P
1542681315.3,286047001.6,P
1542681335.1,286047003.7,Y
1542681355.9,286047001.9,P
1542681375.7,286046999.7,P
1542681395.6,286047004.3,P
1542681415.4,286047003.7,N
1542681435.2,286047001.4,N
1542681455.1,286047001.3,N
1542681456.0,286047001.3,N
1542681505.8,286047003.8,E
1542681515.8,286047001.6,N
1542681535.6,286047001.2,P
1542681555.4,286047002.8,P
1542681575.3,286047002.8,Y
1542681595.1,286046998.9,P
1542681615.9,286046999.3,N
1542681635.7,286046996.5,N
1542681655.5,286046997.3,N
1542681675.4,286046995.4,N
1542681695.2,286046997.3,N
1542681715.0,286046997.4,N
1542681715.9,286046997.4,N
1542681735.8,286046996.5,N
1542681755.6,286046998.1,N
1542681775.5,286046998.8,N
1542681795.3,286046996.6,N
1542681815.1,286046996.8,N
1542681835.9,286046996.6,N
1542681855.7,286046998.0,N
1542681875.5,286046997.9,N
1542681895.4,286046999.5,N
1542681915.2,286046996.6,N
1542681935.1,286046998.0,N
1542681936.0,286046998.0,N
1542681955.8,286046996.7,N
1542681975.6,286046997.5,N
1542681995.5,286046996.6,N
1542682015.3,286046999.0,N
1542682035.1,286047001.2,N
1542682055.9,286047000.1,N
1542682075.7,286047002.3,N
1542682095.6,286047000.0,N
1542682115.4,286046999.9,N
1542682135.2,286047001.0,N
1542682155.1,286046998.7,N
1542682156.0,286046998.7,N
1542682175.8,286046998.8,N
1542682195.7,286046997.1,N
1542682215.5,286046995.3,N
1542682235.3,286046997.3,N
1542682255.2,286046997.7,N
1542682275.9,286046999.3,N
1542682295.7,286046997.0,N
1542682315.6,286046996.6,N
1542682335.4,286046996.7,N
1542682355.3,286046998.0,N
1542682375.1,286046995.3,N
1542682376.0,286046995.3,N
1542682395.8,286046996.1,N
1542682415.7,286046996.2,N
1542682435.5,286046997.7,N
1542682455.4,286046998.0,N
1542682475.2,286046996.3,N
1542682495.0,286046996.0,N
1542682495.9,286046996.0,N
1542682515.8,286046995.1,N
1542682535.6,286046995.6,N
1542682555.4,286046993.7,Y
1542682575.3,286046997.4,P
1542682595.1,286046996.8,P
1542682615.9,286046997.7,P
1542682635.7,286046997.5,Y
1542682655.5,286047001.1,P
1542682675.4,286047001.0,N
1542682695.2,286046998.8,N
1542682715.0,286046996.5,N
1542682715.9,286046996.5,N
1542682735.8,286046999.1,N
1542682755.6,286046998.8,N
1542682775.5,286046999.6,N
1542682795.3,286046996.8,N
